Location: Unspecified
(0.0000°N, 0.0000°E)
Time: 03:48:28
(UTC+00:00)

Explorer 7 - All Passes

Search period start: 25 January 2015 00:00
Search period end: 04 February 2015 00:00
Orbit: 490 x 699 km, 50.3° (Epoch: 24 January)

Date Brightness Start Highest point End Pass type
(mag) Time Alt. Az. Time Alt. Az. Time Alt. Az.
25 Jan - 00:38:21 10° N 00:41:33 18° NE 00:44:51 10° E night (unlit)
25 Jan - 02:18:01 10° WNW 02:22:25 35° SW 02:26:34 10° SSE night (unlit)
25 Jan - 12:42:37 10° S 12:45:28 20° SE 12:48:33 10° ENE daylight
25 Jan - 14:23:06 10° W 14:26:10 20° NW 14:29:15 10° N daylight
26 Jan - 00:45:59 10° NNW 00:50:30 37° NE 00:54:52 10° ESE night (unlit)
26 Jan - 02:28:12 10° W 02:31:16 16° SW 02:34:03 10° SSW night (unlit)
26 Jan - 12:50:32 10° SSW 12:54:17 49° SE 12:58:14 10° NE daylight
27 Jan - 00:54:25 10° NW 00:59:20 84° NE 01:04:01 10° SE night (unlit)
27 Jan - 12:59:14 10° SW 13:03:04 61° NW 13:07:06 10° NNE daylight
27 Jan - 23:24:27 10° NNE 23:27:12 15° NE 23:30:08 10° E night (unlit)
28 Jan - 01:03:28 10° NW 01:08:07 43° SW 01:12:33 10° SSE night (unlit)
28 Jan - 11:28:56 10° SSE 11:31:16 16° SE 11:33:48 10° E daylight
28 Jan - 13:08:42 10° WSW 13:11:56 24° NW 13:15:13 10° N daylight
28 Jan - 23:31:46 10° N 23:36:09 32° NE 23:40:27 10° ESE night (unlit)
29 Jan - 01:13:18 10° W 01:16:57 20° SW 01:20:20 10° S night (unlit)
29 Jan - 11:36:32 10° SSW 11:40:05 38° SE 11:43:49 10° ENE daylight
29 Jan - 13:20:16 10° WNW 13:20:54 10° NW 13:21:16 10° NW daylight
29 Jan - 23:40:02 10° NNW 23:44:59 70° NE 23:49:46 10° SE night (unlit)
30 Jan - 11:45:03 10° SW 11:48:51 78° NW 11:52:49 10° NNE daylight
30 Jan - 22:10:41 10° NNE 22:12:47 13° NE 22:15:09 10° ENE night (unlit)
30 Jan - 23:48:54 10° NW 23:53:45 53° SW 23:58:25 10° SSE night (unlit)
31 Jan - 10:15:25 10° SSE 10:17:01 13° SE 10:18:49 10° E daylight
31 Jan - 11:54:18 10° WSW 11:57:39 29° NW 12:01:07 10° N daylight
31 Jan - 22:17:35 10° N 22:21:44 27° NE 22:25:54 10° ESE night (unlit)
31 Jan - 23:58:29 10° WNW 00:02:33 25° SW 00:06:24 10° S night (unlit)
01 Feb - 10:22:31 10° S 10:25:51 30° SE 10:29:18 10° ENE daylight
01 Feb - 12:04:52 10° WNW 12:06:34 12° NW 12:08:07 10° NNW daylight
01 Feb - 22:25:39 10° NNW 22:30:34 57° NE 22:35:22 10° SE night (unlit)
02 Feb - 00:09:34 10° WSW 00:11:26 12° SW 00:12:58 10° SSW night (unlit)
02 Feb - 10:30:50 10° SW 10:34:36 83° SE 10:38:29 10° NE daylight
02 Feb - 20:57:22 10° NE 20:58:18 11° NE 20:59:35 10° ENE night (unlit)
02 Feb - 22:34:22 10° NW 22:39:19 65° SW 22:44:09 10° SSE night (unlit)
03 Feb - 10:39:52 10° WSW 10:43:22 35° NW 10:46:56 10° NNE daylight
03 Feb - 21:03:25 10° N 21:07:15 23° NE 21:11:12 10° ESE night (unlit)
03 Feb - 22:43:42 10° WNW 22:48:06 30° SW 22:52:20 10° S night (unlit)
